Weather History for KARR - April, 2013

Change the Weather History Date:

Saturday, April 13, 2013

  Actual Average Record
Temperature  
Mean Temperature 39 °F 48 °F  
Max Temperature 45 °F 59 °F 83 °F (2006)
Min Temperature 33 °F 36 °F 24 °F (2003)
Degree Days  
Heating Degree Days 26 17  
Month to date heating degree days 291 253  
Since 1 July heating degree days 6205 6261  
Cooling Degree Days 0 0  
Month to date cooling degree days 0 0  
Year to date cooling degree days 0 0  
Moisture  
Dew Point 31 °F    
Average Humidity 77    
Maximum Humidity 96    
Minimum Humidity 58    
Precipitation  
Precipitation T in 0.10 in 0.61 in (2009)
Month to date precipitation 1.80 1.35  
Year to date precipitation 8.02 6.67  
Sea Level Pressure  
Sea Level Pressure 29.93 in    
Wind  
Wind Speed 13 mph (West)    
Max Wind Speed 26 mph    
Max Gust Speed 33 mph    
Visibility 9 miles    
Events Snow    
T = Trace of Precipitation, MM = Missing Value Source: NWS Daily Summary

Daily Weather History Graph

Daily Weather History Graph

Search for Another Location

Airport or City:

Trip Planner

Search our weather history database for the weather conditions in past years. The results will help you decide how hot, cold, wet, or windy it might be!

Date:

Astronomy

Apr. 13, 2013 Rise Set
Actual Time 6:16 AM CDT 7:32 PM CDT
Civil Twilight 5:47 AM CDT 8:01 PM CDT
Nautical Twilight 5:13 AM CDT 8:36 PM CDT
Astronomical Twilight 4:37 AM CDT 9:12 PM CDT
Moon 8:05 AM CDT (4/13) 10:59 PM CDT (4/13)
Length of Visible Light 14h 13m
Length of Day
13h 16m
Waxing Crescent, 10% of the Moon is Illuminated
Apr 13
Waxing Crescent
Apr 18
First Quarter
Apr 25
Full
May 2
Last Quarter
May 9
New

Hourly Weather History & Observations

Time (CDT) Temp. Windchill Dew Point Humidity Pressure Visibility Wind Dir Wind Speed Gust Speed Precip Events Conditions
12:52 AM 36.0 °F 27.5 °F 30.9 °F 82% 29.88 in 10.0 mi West 12.7 mph - N/A   Overcast
1:52 AM 36.0 °F 27.5 °F 30.0 °F 79% 29.89 in 10.0 mi WSW 12.7 mph - N/A   Overcast
2:52 AM 35.1 °F 26.9 °F 30.0 °F 82% 29.88 in 10.0 mi WSW 11.5 mph - N/A   Overcast
3:42 AM 35.6 °F 28.6 °F 30.2 °F 81% 29.86 in 10.0 mi WSW 9.2 mph - N/A   Overcast
3:52 AM 35.1 °F 26.4 °F 30.9 °F 85% 29.88 in 8.0 mi West 12.7 mph 18.4 mph N/A   Overcast
4:52 AM 33.1 °F 23.9 °F 30.9 °F 92% 29.88 in 6.0 mi West 12.7 mph - 0.00 in   Overcast
4:59 AM 33.8 °F 24.8 °F 32.0 °F 93% 29.87 in 6.0 mi West 12.7 mph - N/A   Overcast
5:45 AM 33.8 °F 25.8 °F 30.2 °F 87% 29.87 in 10.0 mi West 10.4 mph - N/A   Overcast
5:52 AM 34.0 °F 25.5 °F 32.0 °F 92% 29.88 in 9.0 mi West 11.5 mph - N/A   Overcast
6:52 AM 34.0 °F 23.4 °F 30.0 °F 85% 29.89 in 10.0 mi WSW 17.3 mph 21.9 mph N/A   Overcast
7:21 AM 33.8 °F 23.5 °F 30.2 °F 87% 29.88 in 2.0 mi WSW 16.1 mph - 0.00 in Snow Light Snow
7:32 AM 33.8 °F 23.9 °F 30.2 °F 87% 29.89 in 6.0 mi WSW 15.0 mph - 0.00 in Snow Light Snow
7:52 AM 34.0 °F 23.4 °F 30.9 °F 89% 29.91 in 5.0 mi West 17.3 mph 23.0 mph 0.00 in Snow Light Snow
8:03 AM 33.8 °F 23.5 °F 30.2 °F 87% 29.90 in 2.5 mi West 16.1 mph - 0.00 in Snow Light Snow
8:12 AM 33.8 °F 24.3 °F 30.2 °F 87% 29.90 in 3.0 mi West 13.8 mph 23.0 mph 0.00 in Snow Light Snow
8:52 AM 35.1 °F 23.8 °F 30.0 °F 82% 29.92 in 10.0 mi West 20.7 mph 27.6 mph 0.00 in   Overcast
9:52 AM 36.0 °F 25.0 °F 30.0 °F 79% 29.94 in 10.0 mi West 20.7 mph 28.8 mph N/A   Overcast
10:20 AM 37.4 °F 26.9 °F 28.4 °F 70% 29.91 in 10.0 mi West 20.7 mph 27.6 mph N/A   Mostly Cloudy
10:52 AM 39.0 °F 28.5 °F 28.9 °F 67% 29.94 in 10.0 mi West 23.0 mph 29.9 mph N/A   Overcast
11:52 AM 37.9 °F 27.6 °F 28.9 °F 70% 29.96 in 10.0 mi West 20.7 mph 29.9 mph N/A   Overcast
12:52 PM 39.9 °F 30.0 °F 28.9 °F 65% 29.96 in 10.0 mi West 21.9 mph - N/A   Overcast
1:52 PM 41.0 °F 32.2 °F 28.9 °F 62% 29.97 in 10.0 mi West 18.4 mph 26.5 mph N/A   Mostly Cloudy
2:52 PM 42.1 °F 33.9 °F 30.0 °F 62% 29.97 in 10.0 mi West 17.3 mph - N/A   Overcast
3:52 PM 44.1 °F 35.9 °F 30.9 °F 60% 29.96 in 10.0 mi West 19.6 mph 26.5 mph N/A   Mostly Cloudy
4:52 PM 45.0 °F 37.1 °F 30.9 °F 58% 29.96 in 10.0 mi West 19.6 mph 23.0 mph N/A   Mostly Cloudy
5:52 PM 44.1 °F 36.8 °F 30.0 °F 58% 29.97 in 10.0 mi West 16.1 mph - N/A   Overcast
6:52 PM 43.0 °F 36.8 °F 30.9 °F 62% 29.96 in 10.0 mi West 11.5 mph - N/A   Mostly Cloudy
7:52 PM 37.9 °F 33.5 °F 32.0 °F 79% 29.98 in 10.0 mi West 5.8 mph - N/A   Mostly Cloudy
8:52 PM 39.0 °F - 30.9 °F 73% 29.97 in 10.0 mi Calm Calm - N/A   Mostly Cloudy
9:52 PM 39.0 °F - 34.0 °F 82% 29.99 in 10.0 mi Calm Calm - N/A   Overcast
10:52 PM 39.0 °F - 34.0 °F 82% 29.99 in 10.0 mi Calm Calm - N/A   Overcast
11:52 PM 39.0 °F - 34.0 °F 82% 30.00 in 10.0 mi Calm Calm - N/A   Overcast